Torna al catalogo

STARLINK-11480

AttivoComunicazioniVLEO
NORAD 62830·PAYLOAD·🇺🇸 United States

Lanciato Jan 27, 2025 da Cape Canaveral Space Force Station

Loading…

Prossimi Passaggi (prossime 24 ore)

TLE

AggiornatoSource: CelesTrak SupGP

Epoca: Sep 14, 2026, 22:51 UTC

1 62830C 25019B   26257.95256944  .00067357  00000+0  52339-3 0  2571
2 62830  43.0003 245.1722 0001491 261.3186 214.2723 15.70795100    13

Traccia STARLINK-11480 in tempo reale con AllMySat

Download on the App Store